This is the latest recevied weather packets stored in our database for station/object KG0HG. If no packets are shown the sender has not sent any weather packets the latest 10 day(s).
| Time | Temp. | Humidity | Pressure | Rain* | Wind** | Luminosity | Snow |
|---|---|---|---|---|---|---|---|
| 1778121854 | 8.33° C | 75% | 1018.1 hPa | 0 mm | - | 0 W/m² | - |
| 1778121549 | 8.33° C | 74% | 1018 hPa | 0 mm | - | 0 W/m² | - |
| 1778121246 | 8.33° C | 72% | 1018 hPa | 0 mm | - | 0 W/m² | - |
| 1778120943 | 8.89° C | 71% | 1018 hPa | 0 mm | - | 0 W/m² | - |
| 1778120640 | 8.89° C | 69% | 1018.1 hPa | 0 mm | - | 0 W/m² | - |
| 1778120336 | 8.89° C | 67% | 1018 hPa | 0 mm | - | 0 W/m² | - |
| 1778120031 | 9.44° C | 64% | 1018 hPa | 0 mm | - | 0 W/m² | - |
| 1778119729 | 10° C | 60% | 1017.8 hPa | 0 mm | - | 0 W/m² | - |
| 1778119426 | 10° C | 59% | 1017.7 hPa | 0 mm | - | 0 W/m² | - |
| 1778119123 | 10° C | 59% | 1017.7 hPa | 0 mm | - | 0 W/m² | - |
| 1778118821 | 10.56° C | 54% | 1017.9 hPa | 0 mm | - | 0 W/m² | - |
| 1778118518 | 11.11° C | 54% | 1017.8 hPa | 0 mm | - | 0 W/m² | - |
| 1778118214 | 11.11° C | 50% | 1017.5 hPa | 0 mm | - | 0 W/m² | - |
| 1778117910 | 11.11° C | 48% | 1017.6 hPa | 0 mm | - | 0 W/m² | - |
| 1778117607 | 11.67° C | 47% | 1017.4 hPa | 0 mm | - | 0 W/m² | - |
| 1778117305 | 11.67° C | 46% | 1017.4 hPa | 0 mm | - | 0 W/m² | - |
| 1778117000 | 12.22° C | 46% | 1017.5 hPa | 0 mm | - | 0 W/m² | - |
| 1778116692 | 12.22° C | 45% | 1017.3 hPa | 0 mm | - | 0 W/m² | - |
| 1778116389 | 12.78° C | 42% | 1017.5 hPa | 0 mm | - | 1 W/m² | - |
| 1778116089 | 13.33° C | 41% | 1017.4 hPa | 0 mm | - | 1 W/m² | - |
| 1778115785 | 13.89° C | 38% | 1017.4 hPa | 0 mm | - | 5 W/m² | - |
| 1778115482 | 13.89° C | 41% | 1017.3 hPa | 0 mm | - | 7 W/m² | - |
| 1778115178 | 14.44° C | 37% | 1017.4 hPa | 0 mm | - | 10 W/m² | - |
| 1778114875 | 14.44° C | 38% | 1017.3 hPa | 0 mm | - | 10 W/m² | - |
| 1778114573 | 15° C | 34% | 1017.1 hPa | 0 mm | - | 16 W/m² | - |
* Rain latest hour (hover to see other rain measurements)
** Current wind speed in m/s (hover to see current wind gust speed)